Location: Newark
(47.5000°N, 4.6167°E)
Time: 00:42:07
(UTC+00:00)

ISS - Pass Details

Date: 23 May 2021
Orbit: 417 x 422 km, 51.6° (Epoch: 14 June)

Event Time Altitude Azimuth Distance (km) Brightness Sun altitude
Rises 21:45:29 0° 292° (WNW) 2,368 0.9 -17.2°
Reaches altitude 10° 21:47:37 10° 297° (WNW) 1,504 -0.2 -17.3°
Maximum altitude 21:50:57 58° 17° (NNE) 497 -3.2 -17.6°
Enters shadow 21:52:29 28° 86° (E) 822 -2.5 -17.7°
